Regional Weather Roundup
Issued by NWS Midland/Odessa, TX

Skip options and go directly to product.
Home | Oldest Version | Previous Version | Current Version | All | Graphics & Text | Save Text | Print | Product List | Glossary On

Skip product version selection by date and time.   
343
ASUS44 KMAF 310410
RWRMAF
MIDLAND AREA WEATHER ROUNDUP
NATIONAL WEATHER SERVICE MIDLAND TX
1100 PM CDT THU OCT 30 2014

...IN SOUTHWEST TEXAS AND SOUTHEAST NEW MEXICO...

CITY           SKY/WX    TMP DP  RH WIND       PRES   REMARKS
ALPINE         CLEAR     52  35  52 S3        30.34R
ANDREWS        FAIR      60  52  74 NE7       30.27R
ARTESIA        NOT AVBL
BIG SPRING     CLEAR     66  53  62 NE15      30.26R
CARLSBAD       CLEAR     59  47  64 N6        30.26R
DRYDEN           N/A     69  60  73 NE7       30.13R
FORT STOCKTON  CLEAR     63  38  39 N6        30.21R
GUAD PASS      CLEAR     58  42  55 NE35      30.33R
HOBBS          CLEAR     59  46  63 NE12      30.30R HAZE
MARFA          CLEAR     57  34  41 N10       30.30S
MIDLAND AIRPK  CLEAR     66  56  69 NE10      30.25R
MIDLAND INTL   CLEAR     67  56  67 NE16      30.23R
ODESSA         CLEAR     66  53  63 NE14      30.24R
PECOS          CLEAR     64  44  47 N8        30.22R
PRESIDIO       FAIR      75  35  22 N17       30.14R
SEMINOLE       CLEAR     58  49  72 NE7       30.30R
SNYDER         CLEAR     64  45  50 NE13      30.26R
WINK           CLEAR     61  45  55 N10       30.21R
$$
...OTHER STATIONS IN TEXAS...

CITY           SKY/WX    TMP DP  RH WIND       PRES   REMARKS
ABILENE        MOCLDY    70  52  52 NE13      30.23R
AMARILLO       CLEAR     48  31  51 E6        30.35R
AUSTIN         MOCLDY    63  58  83 CALM      30.10R
BROWNSVILLE    CLEAR     72  69  90 E3        30.07S
CORPUS CHRISTI PTCLDY    73  70  90 SE6       30.08R
DALLAS FTW     PTCLDY    64  57  78 NW12      30.15R
DEL RIO        CLEAR     69  62  78 CALM      30.08R
EL PASO        PTCLDY    67  33  28 N9        30.22R
HOUSTON INT    CLEAR     62  55  77 CALM      30.09S
LUBBOCK        CLEAR     51  33  50 NE9       30.30R
SAN ANGELO     MOCLDY    74  57  55 NE16G24   30.18R
SAN ANTONIO    CLEAR     72  62  71 E3        30.10R
WACO           CLOUDY    65  56  72 N3        30.13R
WICHITA FALLS  NOT AVBL
$$
...OTHER LOCATIONS IN NEW MEXICO...

CITY           SKY/WX    TMP DP  RH WIND       PRES   REMARKS
ALAMAGORDO     NOT AVBL
ALBUQUERQUE    CLEAR     60  23  24 E12       30.31R
CANNON AFB     CLEAR     48  28  46 NE10      30.34R
CLOVIS         CLEAR     46  27  46 NE12      30.37R
HOLLOMAN AFB   PTCLDY    58  32  37 NE8       30.22R
ROSWELL        CLEAR     56  33  42 NE7       30.30R
RUIDOSO        CLEAR     48  27  43 S7        30.46R
SANTA FE       CLEAR     54  20  26 SE13      30.38R
TRUTH OR CONSE PTCLDY    59  23  25 CALM      30.26R
TUCUMCARI      CLEAR     50  24  36 E3        30.34R
$$

USA.gov is the U.S. government's official web portal to all federal, state and local government web resources and services.